Cape Cod CGAS, MA

2:52 AM EST on February 21, 2018 (GMT -0500)
Cape Cod Coast Guard Air Station

Weather History for KFMH - September, 2012

Change the Weather History Date:

Wednesday, September 5, 2012

  Actual Average Record
Temperature  
Mean Temperature 72 °F -  
Max Temperature 77 °F 72 °F 82 °F (2011)
Min Temperature 66 °F 56 °F 44 °F (2000)
Cooling Degree Days 6    
Growing Degree Days 22 (Base 50)    
Moisture  
Dew Point 72 °F    
Average Humidity 95    
Maximum Humidity 100    
Minimum Humidity 88    
Precipitation  
Precipitation 1.11 in - - ()
Sea Level Pressure  
Sea Level Pressure 29.82 in    
Wind  
Wind Speed 15 mph (SW)    
Max Wind Speed 25 mph    
Max Gust Speed 34 mph    
Visibility 8 miles    
Events Rain , Thunderstorm    
Averages and records for this station are not official NWS values.
T = Trace of Precipitation, MM = Missing Value Source: NWS Daily Summary

Daily Weather History Graph

Daily Weather History Graph

Search for Another Location

Airport or City:

Trip Planner

Search our weather history database for the weather conditions in past years. The results will help you decide how hot, cold, wet, or windy it might be!

Date:

Astronomy

Sep. 05, 2012 Rise Set
Actual Time 6:12 AM EDT 7:07 PM EDT
Civil Twilight 5:44 AM EDT 7:36 PM EDT
Nautical Twilight 5:10 AM EDT 8:09 PM EDT
Astronomical Twilight 4:35 AM EDT 8:44 PM EDT
Moon 9:30 PM EDT (9/5) 11:18 AM EDT (9/5)
Length of Visible Light 13h 51m
Length of Day
12h 55m
Waning Gibbous, 76% of the Moon is Illuminated
Sep 5
Waning Gibbous
Sep 8
Last Quarter
Sep 15
New
Sep 22
First Quarter
Sep 29
Full

Hourly Weather History & Observations

Time (EDT) Temp. Dew Point Humidity Pressure Visibility Wind Dir Wind Speed Gust Speed Precip Events Conditions
12:15 AM 73.4 °F 71.6 °F 94% 29.92 in 8.0 mi South 12.7 mph - N/A   Overcast
12:35 AM 73.4 °F 71.6 °F 94% 29.91 in 7.0 mi SSW 13.8 mph 18.4 mph N/A   Overcast
12:55 AM 73.4 °F 73.4 °F 100% 29.91 in 8.0 mi SSW 12.7 mph - N/A   Overcast
1:15 AM 73.4 °F 73.4 °F 100% 29.90 in 9.0 mi SSW 13.8 mph 21.9 mph N/A   Overcast
1:35 AM 73.4 °F 73.4 °F 100% 29.89 in 10.0 mi SSW 12.7 mph 20.7 mph N/A   Overcast
1:55 AM 73.4 °F 73.4 °F 100% 29.88 in 10.0 mi SSW 15.0 mph 23.0 mph N/A   Overcast
2:15 AM 73.4 °F 73.4 °F 100% 29.88 in 10.0 mi SSW 15.0 mph 19.6 mph N/A   Overcast
2:35 AM 73.4 °F 73.4 °F 100% 29.87 in 10.0 mi SSW 13.8 mph 23.0 mph N/A   Overcast
2:55 AM 73.4 °F 73.4 °F 100% 29.86 in 10.0 mi SSW 17.3 mph 24.2 mph N/A   Overcast
3:15 AM 73.4 °F 73.4 °F 100% 29.86 in 10.0 mi SSW 17.3 mph 21.9 mph N/A   Overcast
3:35 AM 73.4 °F 73.4 °F 100% 29.85 in 10.0 mi SSW 18.4 mph 21.9 mph N/A   Overcast
3:55 AM 75.2 °F 73.4 °F 94% 29.85 in 10.0 mi SSW 17.3 mph 25.3 mph N/A   Overcast
4:15 AM 75.2 °F 73.4 °F 94% 29.84 in 10.0 mi SSW 17.3 mph 24.2 mph N/A   Overcast
4:35 AM 75.2 °F 73.4 °F 94% 29.83 in 10.0 mi SSW 18.4 mph 26.5 mph N/A   Overcast
4:55 AM 75.2 °F 73.4 °F 94% 29.83 in 10.0 mi SSW 18.4 mph 24.2 mph N/A   Overcast
5:15 AM 75.2 °F 73.4 °F 94% 29.82 in 10.0 mi SSW 21.9 mph 29.9 mph N/A   Mostly Cloudy
5:35 AM 75.2 °F 73.4 °F 94% 29.82 in 9.0 mi SW 18.4 mph 28.8 mph N/A   Overcast
5:55 AM 75.2 °F 73.4 °F 94% 29.82 in 10.0 mi SW 23.0 mph 32.2 mph N/A   Overcast
6:15 AM 75.2 °F 71.6 °F 89% 29.82 in 10.0 mi SW 25.3 mph 33.4 mph N/A   Mostly Cloudy
6:35 AM 73.4 °F 71.6 °F 94% 29.82 in 9.0 mi SW 19.6 mph 31.1 mph N/A Rain Light Rain
6:55 AM 73.4 °F 71.6 °F 94% 29.81 in 10.0 mi SW 20.7 mph 31.1 mph N/A Rain Light Rain
7:15 AM 73.4 °F 71.6 °F 94% 29.82 in 10.0 mi SW 21.9 mph 32.2 mph N/A   Overcast
7:35 AM 75.2 °F 71.6 °F 89% 29.81 in 10.0 mi SW 18.4 mph 29.9 mph N/A   Overcast
7:55 AM 75.2 °F 71.6 °F 89% 29.80 in 10.0 mi SW 19.6 mph 33.4 mph N/A   Overcast
8:15 AM 75.2 °F 71.6 °F 89% 29.80 in 10.0 mi SW 24.2 mph 29.9 mph N/A   Overcast
8:35 AM 75.2 °F 71.6 °F 89% 29.79 in 10.0 mi SW 20.7 mph 29.9 mph N/A   Overcast
8:55 AM 75.2 °F 71.6 °F 89% 29.79 in 10.0 mi SW 23.0 mph 31.1 mph N/A   Overcast
9:15 AM 77.0 °F 73.4 °F 89% 29.80 in 10.0 mi SW 24.2 mph 31.1 mph N/A   Overcast
9:35 AM 77.0 °F 73.4 °F 89% 29.80 in 8.0 mi SW 21.9 mph 29.9 mph N/A   Overcast
9:55 AM 75.2 °F 73.4 °F 94% 29.80 in 3.0 mi SW 24.2 mph 32.2 mph N/A Rain Light Rain
10:15 AM 75.2 °F 73.4 °F 94% 29.79 in 5.0 mi SW 19.6 mph 26.5 mph N/A Rain , Thunderstorm Light Rain
10:35 AM 75.2 °F 73.4 °F 94% 29.80 in 5.0 mi SW 20.7 mph 29.9 mph 0.02 in Rain Light Rain
10:55 AM 75.2 °F 73.4 °F 94% 29.80 in 3.0 mi SW 17.3 mph 24.2 mph 0.04 in Rain Light Rain
11:15 AM 75.2 °F 73.4 °F 94% 29.79 in 4.0 mi SW 19.6 mph 34.5 mph N/A Rain Light Rain
11:35 AM 75.2 °F 73.4 °F 94% 29.79 in 6.0 mi SW 21.9 mph 26.5 mph 0.01 in Thunderstorm Overcast
11:55 AM 75.2 °F 73.4 °F 94% 29.80 in 6.0 mi SW 16.1 mph 27.6 mph 0.01 in Thunderstorm Overcast
12:15 PM 75.2 °F 73.4 °F 94% 29.80 in 7.0 mi SW 19.6 mph 26.5 mph N/A Thunderstorm Thunderstorm
12:35 PM 75.2 °F 73.4 °F 94% 29.80 in 6.0 mi SW 19.6 mph 24.2 mph N/A Thunderstorm Mostly Cloudy
12:55 PM 75.2 °F 73.4 °F 94% 29.79 in 3.0 mi SW 19.6 mph 24.2 mph 0.01 in Rain , Thunderstorm Light Rain
1:15 PM 75.2 °F 73.4 °F 94% 29.79 in 3.0 mi SW 15.0 mph 21.9 mph N/A Thunderstorm Overcast
1:35 PM 75.2 °F 73.4 °F 94% 29.78 in 5.0 mi SW 18.4 mph 25.3 mph 0.02 in Rain , Thunderstorm Light Thunderstorms and Rain
1:55 PM 75.2 °F 73.4 °F 94% 29.78 in 5.0 mi SW 19.6 mph 24.2 mph 0.02 in Rain , Thunderstorm Light Rain
2:15 PM 75.2 °F 73.4 °F 94% 29.77 in 5.0 mi SW 16.1 mph - N/A Thunderstorm Overcast
2:35 PM 73.4 °F 73.4 °F 100% 29.78 in 4.0 mi WSW 15.0 mph - N/A Rain , Thunderstorm Light Thunderstorms and Rain
2:55 PM 73.4 °F 73.4 °F 100% 29.77 in 4.0 mi WSW 16.1 mph 20.7 mph 0.02 in Rain , Thunderstorm Rain
3:15 PM 73.4 °F 73.4 °F 100% 29.78 in 3.0 mi WSW 13.8 mph - N/A   Overcast
3:35 PM 73.4 °F 71.6 °F 94% 29.77 in 1.0 mi West 13.8 mph 19.6 mph 0.37 in Rain , Thunderstorm Rain
3:55 PM 73.4 °F 71.6 °F 94% 29.78 in 0.8 mi WSW 10.4 mph 16.1 mph 0.56 in Rain , Thunderstorm Heavy Rain
4:15 PM 73.4 °F 71.6 °F 94% 29.77 in 0.8 mi WSW 12.7 mph - 0.27 in Rain , Thunderstorm Heavy Thunderstorms and Rain
4:35 PM 73.4 °F 71.6 °F 94% 29.77 in 2.5 mi West 11.5 mph - 0.43 in Rain , Thunderstorm Light Rain
4:55 PM 73.4 °F 73.4 °F 100% 29.78 in 5.0 mi West 8.1 mph - 0.45 in Rain Light Rain
5:15 PM 73.4 °F 73.4 °F 100% 29.77 in 8.0 mi WSW 4.6 mph - N/A   Overcast
5:35 PM 73.4 °F 73.4 °F 100% 29.77 in 8.0 mi West 4.6 mph - N/A Thunderstorm Overcast
5:55 PM 73.4 °F 73.4 °F 100% 29.78 in 9.0 mi WSW 4.6 mph - N/A Thunderstorm Overcast
6:15 PM 73.4 °F 71.6 °F 94% 29.79 in 10.0 mi SW 4.6 mph - N/A Thunderstorm Overcast
6:35 PM 73.4 °F 71.6 °F 94% 29.80 in 7.0 mi SW 3.5 mph - N/A   Overcast
6:55 PM 73.4 °F 71.6 °F 94% 29.80 in 5.0 mi Calm Calm - N/A   Overcast
7:15 PM 73.4 °F 71.6 °F 94% 29.80 in 5.0 mi WNW 4.6 mph - N/A   Overcast
7:35 PM 73.4 °F 71.6 °F 94% 29.80 in 10.0 mi Calm Calm - N/A   Overcast
7:55 PM 71.6 °F 71.6 °F 100% 29.81 in 10.0 mi NNE 6.9 mph - N/A   Overcast
8:15 PM 69.8 °F 69.8 °F 100% 29.82 in 10.0 mi NE 10.4 mph - N/A   Overcast
8:35 PM 68.0 °F 68.0 °F 100% 29.83 in 10.0 mi NE 5.8 mph - N/A   Overcast
8:55 PM 68.0 °F 68.0 °F 100% 29.83 in 10.0 mi ENE 11.5 mph - N/A   Overcast
9:15 PM 68.0 °F 66.2 °F 94% 29.83 in 10.0 mi NE 6.9 mph - N/A Thunderstorm Overcast
9:35 PM 66.2 °F 64.4 °F 94% 29.83 in 10.0 mi ENE 6.9 mph - N/A   Overcast
9:55 PM 66.2 °F 64.4 °F 94% 29.83 in 10.0 mi ENE 6.9 mph - N/A   Overcast
10:15 PM 66.2 °F 64.4 °F 94% 29.83 in 10.0 mi ENE 6.9 mph - N/A   Overcast
10:35 PM 66.2 °F 64.4 °F 94% 29.83 in 10.0 mi ENE 8.1 mph - N/A   Overcast
10:55 PM 66.2 °F 64.4 °F 94% 29.83 in 10.0 mi NE 6.9 mph - N/A   Mostly Cloudy
11:15 PM 66.2 °F 64.4 °F 94% 29.83 in 10.0 mi NE 6.9 mph - N/A   Overcast
11:35 PM 66.2 °F 64.4 °F 94% 29.84 in 10.0 mi NE 4.6 mph - N/A   Overcast
11:55 PM 66.2 °F 64.4 °F 94% 29.84 in 10.0 mi NE 4.6 mph - N/A Thunderstorm Overcast